Torna al catalogo

STARLINK-5494

AttivoComunicazioniVLEO
NORAD 55650·PAYLOAD·🇺🇸 United States

Lanciato Feb 17, 2023 da Vandenberg Space Force Base

Loading…

Prossimi Passaggi (prossime 24 ore)

TLE

AggiornatoSource: CelesTrak SupGP

Epoca: Sep 15, 2026, 01:56 UTC

1 55650C 23021Y   26258.08104167 -.00052234  00000+0 -43785-2 0  2583
2 55650  70.0011  66.9186 0002567 271.6029 344.6272 14.98348936    19

Traccia STARLINK-5494 in tempo reale con AllMySat

Download on the App Store